| time (UTC) | temp F | wind direction | speed knots | gust knots | rain 1hr in | rain 24hr in | rain mn in | humidity % | barometer mb |
| 20260504050537 | 54 | 196 | 1.7 | 5.2 | 0.00 | 0.00 | 0.00 | 55 | 1008.4 |
| 20260504045552 | 54 | 194 | 2.6 | 4.3 | 0.00 | 0.00 | 0.00 | 54 | 1008.6 |
| 20260504045037 | 55 | 185 | 2.6 | 6.1 | 0.00 | 0.00 | 0.00 | 54 | 1008.5 |
| 20260504044549 | 55 | 198 | 3.5 | 6.1 | 0.00 | 0.00 | 0.00 | 54 | 1008.6 |
| 20260504044046 | 55 | 196 | 2.6 | 5.2 | 0.00 | 0.00 | 0.00 | 53 | 1008.6 |
| 20260504043556 | 55 | 196 | 2.6 | 7.0 | 0.00 | 0.00 | 0.00 | 54 | 1008.6 |
| 20260504043046 | 55 | 161 | 3.5 | 7.0 | 0.00 | 0.00 | 0.00 | 53 | 1008.6 |
| 20260504042528 | 55 | 196 | 4.3 | 7.8 | 0.00 | 0.00 | 0.00 | 53 | 1008.6 |
| 20260504042045 | 55 | 195 | 2.6 | 6.1 | 0.00 | 0.00 | 0.00 | 53 | 1008.5 |
| 20260504041526 | 56 | 202 | 3.5 | 7.0 | 0.00 | 0.00 | 0.00 | 53 | 1008.6 |
| 20260504041047 | 56 | 199 | 3.5 | 7.0 | 0.00 | 0.00 | 0.00 | 53 | 1008.6 |
| 20260504040544 | 56 | 205 | 2.6 | 6.1 | 0.00 | 0.00 | 0.00 | 53 | 1008.5 |
| 20260504040030 | 56 | 185 | 2.6 | 4.3 | 0.00 | 0.00 | 0.00 | 53 | 1008.5 |
| 20260504035541 | 56 | 194 | 2.6 | 4.3 | 0.00 | 0.00 | 0.00 | 53 | 1008.5 |
| 20260504035109 | 56 | 190 | 2.6 | 6.1 | 0.00 | 0.00 | 0.00 | 53 | 1008.4 |
| 20260504034537 | 56 | 205 | 2.6 | 6.1 | 0.00 | 0.00 | 0.00 | 53 | 1008.5 |
| 20260504034044 | 56 | 187 | 1.7 | 4.3 | 0.00 | 0.00 | 0.00 | 53 | 1008.4 |
| 20260504033611 | 56 | 198 | 1.7 | 5.2 | 0.00 | 0.00 | 0.00 | 53 | 1008.4 |
| 20260504033025 | 56 | 202 | 2.6 | 7.0 | 0.00 | 0.00 | 0.00 | 53 | 1008.5 |
| 20260504032615 | 56 | 223 | 2.6 | 7.0 | 0.00 | 0.00 | 0.00 | 52 | 1008.5 |
| 20260504032030 | 56 | 202 | 2.6 | 5.2 | 0.00 | 0.00 | 0.00 | 53 | 1008.5 |
| 20260504031541 | 56 | 208 | 2.6 | 5.2 | 0.00 | 0.00 | 0.00 | 53 | 1008.5 |
| 20260504031036 | 56 | 221 | 1.7 | 4.3 | 0.00 | 0.00 | 0.00 | 54 | 1008.5 |
| 20260504030541 | 56 | 222 | 1.7 | 5.2 | 0.00 | 0.00 | 0.00 | 53 | 1008.6 |
| 20260504030039 | 56 | 205 | 2.6 | 5.2 | 0.00 | 0.00 | 0.00 | 53 | 1008.5 |
| 20260504025519 | 56 | 205 | 2.6 | 7.0 | 0.00 | 0.00 | 0.00 | 54 | 1008.6 |
| 20260504025034 | 56 | 202 | 3.5 | 7.0 | 0.00 | 0.00 | 0.00 | 53 | 1008.6 |
| 20260504024518 | 56 | 198 | 1.7 | 6.1 | 0.00 | 0.00 | 0.00 | 54 | 1008.7 |
| 20260504024053 | 55 | 234 | 2.6 | 6.1 | 0.00 | 0.00 | 0.00 | 55 | 1008.7 |
| 20260504023530 | 55 | 218 | 2.6 | 5.2 | 0.00 | 0.00 | 0.00 | 54 | 1008.7 |
| 20260504023110 | 55 | 241 | 2.6 | 5.2 | 0.00 | 0.00 | 0.00 | 55 | 1008.8 |
| 20260504022538 | 55 | 221 | 1.7 | 3.5 | 0.00 | 0.00 | 0.00 | 55 | 1008.9 |
| 20260504022022 | 54 | 256 | 1.7 | 3.5 | 0.00 | 0.00 | 0.00 | 57 | 1009.0 |
| 20260504021537 | 54 | 200 | 0.0 | 1.7 | 0.00 | 0.00 | 0.00 | 56 | 1008.9 |
| 20260504021025 | 54 | 200 | 0.0 | 1.7 | 0.00 | 0.00 | 0.00 | 57 | 1008.9 |
| 20260504020545 | 54 | 200 | 0.9 | 2.6 | 0.00 | 0.00 | 0.00 | 58 | 1008.9 |
| 20260504020059 | 54 | 200 | 1.7 | 2.6 | 0.00 | 0.00 | 0.00 | 57 | 1008.9 |
| 20260504015528 | 54 | 200 | 0.0 | 2.6 | 0.00 | 0.00 | 0.00 | 57 | 1008.9 |
| 20260504015034 | 54 | 200 | 0.9 | 4.3 | 0.00 | 0.00 | 0.00 | 57 | 1008.8 |
| 20260504014525 | 54 | 200 | 2.6 | 4.3 | 0.00 | 0.00 | 0.00 | 56 | 1008.8 |
| 20260504014034 | 54 | 246 | 0.0 | 2.6 | 0.00 | 0.00 | 0.00 | 57 | 1009.0 |
| 20260504013547 | 54 | 188 | 0.0 | 6.1 | 0.00 | 0.00 | 0.00 | 57 | 1009.1 |
| 20260504013052 | 55 | 262 | 1.7 | 6.1 | 0.00 | 0.00 | 0.00 | 57 | 1009.1 |
| 20260504012526 | 55 | 220 | 0.9 | 7.8 | 0.00 | 0.00 | 0.00 | 57 | 1009.3 |
| 20260504012020 | 54 | 241 | 3.5 | 8.7 | 0.00 | 0.00 | 0.00 | 57 | 1009.4 |
| 20260504011534 | 54 | 245 | 3.5 | 9.6 | 0.00 | 0.00 | 0.00 | 57 | 1009.3 |
| 20260504011029 | 54 | 244 | 3.5 | 9.6 | 0.00 | 0.00 | 0.00 | 57 | 1009.3 |
| 20260504010519 | 54 | 221 | 2.6 | 8.7 | 0.00 | 0.00 | 0.00 | 58 | 1009.2 |
| 20260504010038 | 54 | 267 | 1.7 | 6.1 | 0.00 | 0.00 | 0.00 | 59 | 1009.1 |
| 20260504005526 | 54 | 267 | 3.5 | 7.0 | 0.00 | 0.00 | 0.00 | 59 | 1009.3 |
| 20260504005048 | 54 | 218 | 2.6 | 12.2 | 0.00 | 0.00 | 0.00 | 59 | 1009.5 |
| 20260504004609 | 54 | 254 | 6.1 | 12.2 | 0.00 | 0.00 | 0.00 | 58 | 1009.6 |
| 20260504004044 | 55 | 259 | 5.2 | 13.0 | 0.00 | 0.00 | 0.00 | 58 | 1009.7 |
| 20260504003533 | 55 | 311 | 5.2 | 13.0 | 0.00 | 0.00 | 0.00 | 57 | 1009.6 |
| 20260504003027 | 55 | 262 | 2.6 | 9.6 | 0.00 | 0.00 | 0.00 | 57 | 1009.5 |
| 20260504002536 | 55 | 332 | 3.5 | 7.8 | 0.00 | 0.00 | 0.00 | 56 | 1009.3 |
| 20260504002026 | 55 | 220 | 3.5 | 12.2 | 0.00 | 0.00 | 0.00 | 55 | 1009.4 |
| 20260504001540 | 55 | 227 | 4.3 | 12.2 | 0.00 | 0.00 | 0.00 | 54 | 1009.3 |
| 20260504001031 | 55 | 266 | 2.6 | 8.7 | 0.00 | 0.00 | 0.00 | 54 | 1009.1 |
| 20260504000538 | 55 | 248 | 3.5 | 8.7 | 0.00 | 0.00 | 0.00 | 53 | 1009.0 |
| 20260504000046 | 55 | 254 | 4.3 | 8.7 | 0.00 | 0.00 | 0.00 | 53 | 1009.0 |
| 20260503235523 | 56 | 271 | 4.3 | 21.7 | 0.00 | 0.00 | 0.00 | 52 | 1009.1 |
| 20260503235048 | 56 | 218 | 7.8 | 21.7 | 0.00 | 0.00 | 0.00 | 52 | 1009.1 |
| 20260503234541 | 56 | 236 | 13.0 | 22.6 | 0.00 | 0.00 | 0.00 | 51 | 1009.1 |
| 20260503234049 | 56 | 275 | 6.1 | 19.1 | 0.00 | 0.00 | 0.00 | 51 | 1009.2 |
| 20260503233523 | 57 | 258 | 7.0 | 13.9 | 0.00 | 0.00 | 0.00 | 50 | 1009.0 |
| 20260503233048 | 57 | 263 | 7.0 | 13.9 | 0.00 | 0.00 | 0.00 | 50 | 1009.0 |
| 20260503232537 | 57 | 237 | 5.2 | 13.9 | 0.00 | 0.00 | 0.00 | 50 | 1008.9 |
| 20260503232042 | 57 | 233 | 5.2 | 12.2 | 0.00 | 0.00 | 0.00 | 48 | 1008.8 |
| 20260503231524 | 57 | 235 | 6.1 | 12.2 | 0.00 | 0.00 | 0.00 | 47 | 1008.7 |
| 20260503231108 | 57 | 221 | 4.3 | 13.9 | 0.00 | 0.00 | 0.00 | 47 | 1008.7 |
| 20260503230537 | 57 | 244 | 4.3 | 10.4 | 0.00 | 0.00 | 0.00 | 46 | 1008.7 |
| 20260503230032 | 58 | 242 | 3.5 | 14.8 | 0.00 | 0.00 | 0.00 | 46 | 1008.7 |
| 20260503225540 | 58 | 261 | 6.1 | 14.8 | 0.00 | 0.01 | 0.00 | 44 | 1008.5 |
| 20260503225041 | 57 | 254 | 3.5 | 10.4 | 0.00 | 0.01 | 0.00 | 45 | 1008.5 |
| 20260503224545 | 57 | 209 | 4.3 | 9.6 | 0.00 | 0.01 | 0.00 | 46 | 1008.4 |
| 20260503224047 | 57 | 182 | 1.7 | 8.7 | 0.00 | 0.01 | 0.00 | 47 | 1008.5 |
| 20260503223553 | 57 | 255 | 3.5 | 8.7 | 0.00 | 0.01 | 0.00 | 46 | 1008.4 |
| 20260503223025 | 57 | 271 | 1.7 | 9.6 | 0.00 | 0.01 | 0.00 | 47 | 1008.6 |
| 20260503222554 | 57 | 262 | 3.5 | 10.4 | 0.00 | 0.01 | 0.00 | 47 | 1008.7 |
| 20260503222024 | 57 | 275 | 5.2 | 12.2 | 0.00 | 0.01 | 0.00 | 45 | 1008.7 |
| 20260503221555 | 58 | 253 | 5.2 | 12.2 | 0.00 | 0.01 | 0.00 | 46 | 1008.7 |
| 20260503221024 | 58 | 293 | 4.3 | 10.4 | 0.00 | 0.01 | 0.00 | 46 | 1008.8 |
| 20260503220539 | 58 | 262 | 5.2 | 11.3 | 0.00 | 0.01 | 0.00 | 44 | 1008.8 |
| 20260503220028 | 58 | 277 | 6.1 | 12.2 | 0.00 | 0.01 | 0.00 | 44 | 1008.8 |
| 20260503215534 | 58 | 254 | 6.1 | 13.9 | 0.00 | 0.01 | 0.00 | 44 | 1008.8 |
| 20260503215028 | 58 | 259 | 4.3 | 12.2 | 0.00 | 0.01 | 0.00 | 44 | 1008.8 |
| 20260503214539 | 58 | 246 | 6.1 | 12.2 | 0.00 | 0.01 | 0.00 | 44 | 1008.8 |
| 20260503214037 | 58 | 248 | 4.3 | 15.6 | 0.00 | 0.01 | 0.00 | 43 | 1008.7 |
| 20260503213542 | 59 | 240 | 6.1 | 15.6 | 0.00 | 0.01 | 0.00 | 42 | 1008.5 |
| 20260503213033 | 59 | 286 | 4.3 | 14.8 | 0.00 | 0.01 | 0.00 | 44 | 1008.5 |
| 20260503212524 | 59 | 261 | 3.5 | 7.8 | 0.00 | 0.01 | 0.00 | 44 | 1008.6 |
| 20260503212025 | 59 | 259 | 2.6 | 12.2 | 0.00 | 0.01 | 0.00 | 45 | 1008.5 |
| 20260503211534 | 59 | 257 | 3.5 | 13.0 | 0.00 | 0.01 | 0.00 | 43 | 1008.4 |
| 20260503211053 | 59 | 256 | 2.6 | 13.0 | 0.00 | 0.01 | 0.00 | 43 | 1008.4 |
| 20260503210526 | 59 | 244 | 4.3 | 8.7 | 0.00 | 0.01 | 0.00 | 43 | 1008.5 |
| 20260503210034 | 59 | 221 | 2.6 | 8.7 | 0.00 | 0.01 | 0.00 | 43 | 1008.4 |
| 20260503205529 | 59 | 230 | 3.5 | 6.1 | 0.00 | 0.01 | 0.00 | 43 | 1008.6 |
| 20260503205102 | 59 | 233 | 1.7 | 5.2 | 0.00 | 0.01 | 0.00 | 45 | 1008.7 |
| 20260503204542 | 59 | 219 | 1.7 | 6.1 | 0.00 | 0.01 | 0.00 | 42 | 1008.8 |
| 20260503204055 | 59 | 241 | 2.6 | 7.8 | 0.00 | 0.01 | 0.00 | 44 | 1008.7 |
| 20260503203521 | 59 | 223 | 3.5 | 13.0 | 0.00 | 0.01 | 0.00 | 42 | 1008.8 |
| 20260503203038 | 59 | 244 | 5.2 | 13.0 | 0.00 | 0.01 | 0.00 | 40 | 1008.9 |
| 20260503202536 | 58 | 240 | 4.3 | 7.0 | 0.00 | 0.01 | 0.00 | 45 | 1008.9 |
| 20260503202036 | 58 | 256 | 2.6 | 8.7 | 0.00 | 0.01 | 0.00 | 46 | 1009.0 |
| 20260503201617 | 58 | 244 | 2.6 | 9.6 | 0.00 | 0.01 | 0.00 | 45 | 1009.1 |
| 20260503201050 | 58 | 255 | 1.7 | 8.7 | 0.00 | 0.01 | 0.00 | 46 | 1009.3 |
| 20260503200529 | 58 | 202 | 2.6 | 11.3 | 0.00 | 0.01 | 0.00 | 46 | 1009.4 |
| 20260503200028 | 57 | 281 | 4.3 | 11.3 | 0.00 | 0.01 | 0.00 | 44 | 1009.5 |
| 20260503195539 | 58 | 257 | 3.5 | 7.8 | 0.00 | 0.01 | 0.00 | 44 | 1009.5 |
| 20260503195026 | 57 | 267 | 3.5 | 8.7 | 0.00 | 0.01 | 0.00 | 47 | 1009.6 |
| 20260503194552 | 57 | 252 | 2.6 | 9.6 | 0.00 | 0.01 | 0.00 | 45 | 1009.7 |
| 20260503194033 | 57 | 236 | 4.3 | 9.6 | 0.00 | 0.01 | 0.00 | 44 | 1009.7 |
| 20260503193527 | 57 | 239 | 3.5 | 9.6 | 0.00 | 0.01 | 0.00 | 43 | 1009.8 |
| 20260503193039 | 57 | 205 | 3.5 | 7.8 | 0.00 | 0.01 | 0.00 | 47 | 1010.0 |
| 20260503192608 | 56 | 271 | 3.5 | 12.2 | 0.00 | 0.01 | 0.00 | 45 | 1010.0 |
| 20260503192025 | 56 | 236 | 5.2 | 14.8 | 0.00 | 0.01 | 0.00 | 44 | 1010.1 |
| 20260503191552 | 56 | 263 | 7.0 | 13.0 | 0.00 | 0.01 | 0.00 | 43 | 1010.2 |
| 20260503191025 | 56 | 271 | 6.1 | 12.2 | 0.00 | 0.01 | 0.00 | 45 | 1010.2 |
| 20260503190534 | 56 | 267 | 5.2 | 12.2 | 0.00 | 0.01 | 0.00 | 45 | 1010.4 |
| 20260503190039 | 56 | 229 | 3.5 | 9.6 | 0.00 | 0.01 | 0.00 | 44 | 1010.3 |
| 20260503185525 | 56 | 224 | 4.3 | 12.2 | 0.00 | 0.01 | 0.00 | 44 | 1010.3 |
| 20260503185048 | 56 | 240 | 4.3 | 12.2 | 0.00 | 0.01 | 0.00 | 44 | 1010.5 |
| 20260503184529 | 55 | 241 | 6.1 | 10.4 | 0.00 | 0.01 | 0.00 | 44 | 1010.6 |
| 20260503184050 | 55 | 232 | 5.2 | 11.3 | 0.00 | 0.01 | 0.00 | 48 | 1010.8 |
| 20260503183537 | 55 | 239 | 4.3 | 18.2 | 0.00 | 0.01 | 0.00 | 49 | 1010.8 |
| 20260503183059 | 55 | 311 | 2.6 | 12.2 | 0.00 | 0.01 | 0.00 | 51 | 1010.8 |
| 20260503182543 | 55 | 315 | 5.2 | 13.0 | 0.00 | 0.01 | 0.00 | 47 | 1010.8 |
| 20260503182040 | 55 | 294 | 7.0 | 13.0 | 0.00 | 0.01 | 0.00 | 45 | 1010.8 |
| 20260503181535 | 56 | 292 | 4.3 | 12.2 | 0.00 | 0.01 | 0.00 | 48 | 1010.9 |
| 20260503181023 | 56 | 5 | 3.5 | 12.2 | 0.00 | 0.01 | 0.00 | 48 | 1010.7 |
| 20260503180554 | 56 | 286 | 5.2 | 8.7 | 0.00 | 0.01 | 0.00 | 47 | 1010.8 |
| 20260503180028 | 55 | 311 | 4.3 | 10.4 | 0.00 | 0.01 | 0.00 | 49 | 1010.9 |
| 20260503175546 | 55 | 312 | 4.3 | 16.5 | 0.00 | 0.01 | 0.00 | 48 | 1011.0 |
| 20260503175045 | 56 | 308 | 7.8 | 16.5 | 0.00 | 0.01 | 0.00 | 48 | 1011.0 |
| 20260503174533 | 55 | 258 | 4.3 | 12.2 | 0.00 | 0.01 | 0.00 | 49 | 1011.0 |
| 20260503174026 | 56 | 238 | 3.5 | 11.3 | 0.00 | 0.01 | 0.00 | 49 | 1011.0 |
| 20260503173534 | 56 | 258 | 4.3 | 14.8 | 0.00 | 0.01 | 0.00 | 48 | 1011.0 |
| 20260503173048 | 56 | 273 | 3.5 | 14.8 | 0.00 | 0.01 | 0.00 | 51 | 1011.1 |
| 20260503172545 | 55 | 245 | 5.2 | 11.3 | 0.00 | 0.01 | 0.00 | 48 | 1011.1 |
| 20260503172045 | 55 | 277 | 3.5 | 13.9 | 0.00 | 0.01 | 0.00 | 50 | 1011.2 |
| 20260503171559 | 55 | 249 | 7.0 | 13.9 | 0.00 | 0.01 | 0.00 | 48 | 1011.2 |
| 20260503171103 | 55 | 233 | 3.5 | 10.4 | 0.00 | 0.01 | 0.00 | 52 | 1011.2 |
| 20260503170607 | 54 | 185 | 4.3 | 10.4 | 0.00 | 0.01 | 0.00 | 49 | 1011.2 |
| 20260503150525 | 51 | 293 | 2.6 | 6.1 | 0.00 | 0.01 | 0.00 | 51 | 1012.8 |
| 20260503131050 | 47 | 262 | 2.6 | 8.7 | 0.00 | 0.01 | 0.00 | 58 | 1013.7 |
| 20260503130523 | 46 | 251 | 2.6 | 6.1 | 0.00 | 0.01 | 0.00 | 59 | 1013.8 |
| 20260503110536 | 38 | 254 | 0.0 | 2.6 | 0.00 | 0.01 | 0.00 | 83 | 1013.5 |
| 20260503081555 | 38 | 250 | 0.0 | 0.0 | 0.00 | 0.02 | 0.00 | 80 | 1013.2 |
| 20260503081030 | 38 | 255 | 0.0 | 0.0 | 0.00 | 0.02 | 0.00 | 80 | 1013.3 |
| 20260503080526 | 38 | 255 | 0.0 | 0.0 | 0.00 | 0.02 | 0.00 | 80 | 1013.3 |
| 20260503072539 | 39 | 255 | 0.0 | 0.0 | 0.00 | 0.02 | 0.00 | 78 | 1013.2 |
| 20260503072027 | 39 | 255 | 0.0 | 0.0 | 0.00 | 0.02 | 0.00 | 78 | 1013.2 |
| 20260503071547 | 39 | 255 | 0.0 | 0.0 | 0.00 | 0.02 | 0.00 | 78 | 1013.3 |
| 20260503071030 | 39 | 255 | 0.0 | 0.0 | 0.00 | 0.02 | 0.00 | 77 | 1013.3 |
| 20260503070536 | 40 | 255 | 0.0 | 0.0 | 0.00 | 0.02 | 0.00 | 77 | 1013.2 |